Back to catalog

STARLINK-34018

AliveCommunicationsVLEO
NORAD 63836·PAYLOAD·🇺🇸 United States

Launched May 7, 2025 from Cape Canaveral Space Force Station

Loading…

Next Passes (next 24 hours)

TLE

FreshSource: CelesTrak SupGP

Epoch: Sep 14, 2026, 21:04 UTC

1 63836C 25093A   26257.87826389 -.00002182  00000+0 -79058-4 0  2572
2 63836  43.0017  89.5985 0001633 272.2827 123.2117 15.27573173    19

Track STARLINK-34018 in real time with AllMySat

Download on the App Store